Year,Month,Day,Hour,Minute,Value (Times are PST for temperature in C)
2013,08,21,00,00,15.50
2013,08,21,00,01,15.40
2013,08,21,00,02,15.40
2013,08,21,00,03,15.30
2013,08,21,00,04,15.30
2013,08,21,00,05,15.20
2013,08,21,00,06,15.20
2013,08,21,00,07,15.20
2013,08,21,00,08,15.10
2013,08,21,00,09,15.10
2013,08,21,00,10,15.00
2013,08,21,00,11,15.00
2013,08,21,00,12,14.90
2013,08,21,00,13,14.90
2013,08,21,00,14,15.00
2013,08,21,00,15,15.00
2013,08,21,00,16,15.10
2013,08,21,00,17,15.10
2013,08,21,00,18,15.20
2013,08,21,00,19,15.30
2013,08,21,00,20,15.30
2013,08,21,00,21,15.30
2013,08,21,00,22,15.40
2013,08,21,00,23,15.40
2013,08,21,00,24,15.50
2013,08,21,00,25,15.50
2013,08,21,00,26,15.50
2013,08,21,00,27,15.50
2013,08,21,00,28,15.50
2013,08,21,00,29,15.40
2013,08,21,00,30,15.40
2013,08,21,00,31,15.30
2013,08,21,00,32,15.30
2013,08,21,00,33,15.30
2013,08,21,00,34,15.30
2013,08,21,00,35,15.30
2013,08,21,00,36,15.30
2013,08,21,00,37,15.30
2013,08,21,00,38,15.30
2013,08,21,00,39,15.30
2013,08,21,00,40,15.30
2013,08,21,00,41,15.30
2013,08,21,00,42,15.30
2013,08,21,00,43,15.20
2013,08,21,00,44,15.20
2013,08,21,00,45,15.10
2013,08,21,00,46,15.00
2013,08,21,00,47,15.00
2013,08,21,00,48,14.90
2013,08,21,00,49,14.90
2013,08,21,00,50,14.80
2013,08,21,00,51,14.80
2013,08,21,00,52,14.80
2013,08,21,00,53,14.70
2013,08,21,00,54,14.70
2013,08,21,00,55,14.70
2013,08,21,00,56,14.70
2013,08,21,00,57,14.60
2013,08,21,00,58,14.60
2013,08,21,00,59,14.60
2013,08,21,01,00,14.50
2013,08,21,01,01,14.50
2013,08,21,01,02,14.40
2013,08,21,01,03,14.40
2013,08,21,01,04,14.40
2013,08,21,01,05,14.40
2013,08,21,01,06,14.50
2013,08,21,01,07,14.50
2013,08,21,01,08,14.60
2013,08,21,01,09,14.60
2013,08,21,01,10,14.70
2013,08,21,01,11,14.70
2013,08,21,01,12,14.70
2013,08,21,01,13,14.60
2013,08,21,01,14,14.60
2013,08,21,01,15,14.60
2013,08,21,01,16,14.60
2013,08,21,01,17,14.60
2013,08,21,01,18,14.60
2013,08,21,01,19,14.60
2013,08,21,01,20,14.60
2013,08,21,01,21,14.60
2013,08,21,01,22,14.60
2013,08,21,01,23,14.60
2013,08,21,01,24,14.50
2013,08,21,01,25,14.50
2013,08,21,01,26,14.50
2013,08,21,01,27,14.50
2013,08,21,01,28,14.50
2013,08,21,01,29,14.50
2013,08,21,01,30,14.60
2013,08,21,01,31,14.60
2013,08,21,01,32,14.50
2013,08,21,01,33,14.50
2013,08,21,01,34,14.50
2013,08,21,01,35,14.50
2013,08,21,01,36,14.50
2013,08,21,01,37,14.50
2013,08,21,01,38,14.60
2013,08,21,01,39,14.60
2013,08,21,01,40,14.60
2013,08,21,01,41,14.60
2013,08,21,01,42,14.60
2013,08,21,01,43,14.60
2013,08,21,01,44,14.60
2013,08,21,01,45,14.50
2013,08,21,01,46,14.50
2013,08,21,01,47,14.40
2013,08,21,01,48,14.40
2013,08,21,01,49,14.30
2013,08,21,01,50,14.30
2013,08,21,01,51,14.20
2013,08,21,01,52,14.20
2013,08,21,01,53,14.10
2013,08,21,01,54,14.10
2013,08,21,01,55,14.10
2013,08,21,01,56,14.10
2013,08,21,01,57,14.00
2013,08,21,01,58,14.00
2013,08,21,01,59,14.00
2013,08,21,02,00,13.90
2013,08,21,02,01,13.90
2013,08,21,02,02,13.90
2013,08,21,02,03,13.80
2013,08,21,02,04,13.80
2013,08,21,02,05,13.80
2013,08,21,02,06,13.80
2013,08,21,02,07,13.80
2013,08,21,02,08,13.80
2013,08,21,02,09,13.80
2013,08,21,02,10,13.80
2013,08,21,02,11,13.70
2013,08,21,02,12,13.70
2013,08,21,02,13,13.60
2013,08,21,02,14,13.60
2013,08,21,02,15,13.60
2013,08,21,02,16,13.50
2013,08,21,02,17,13.50
2013,08,21,02,18,13.40
2013,08,21,02,19,13.40
2013,08,21,02,20,13.40
2013,08,21,02,21,13.40
2013,08,21,02,22,13.40
2013,08,21,02,23,13.40
2013,08,21,02,24,13.40
2013,08,21,02,25,13.40
2013,08,21,02,26,13.40
2013,08,21,02,27,13.40
2013,08,21,02,28,13.40
2013,08,21,02,29,13.40
2013,08,21,02,30,13.40
2013,08,21,02,31,13.40
2013,08,21,02,32,13.40
2013,08,21,02,33,13.40
2013,08,21,02,34,13.40
2013,08,21,02,35,13.40
2013,08,21,02,36,13.40
2013,08,21,02,37,13.40
2013,08,21,02,38,13.40
2013,08,21,02,39,13.40
2013,08,21,02,40,13.40
2013,08,21,02,41,13.50
2013,08,21,02,42,13.50
2013,08,21,02,43,13.50
2013,08,21,02,44,13.40
2013,08,21,02,45,13.50
2013,08,21,02,46,13.40
2013,08,21,02,47,13.40
2013,08,21,02,48,13.50
2013,08,21,02,49,13.50
2013,08,21,02,50,13.50
2013,08,21,02,51,13.50
2013,08,21,02,52,13.40
2013,08,21,02,53,13.40
2013,08,21,02,54,13.40
2013,08,21,02,55,13.40
2013,08,21,02,56,13.30
2013,08,21,02,57,13.30
2013,08,21,02,58,13.30
2013,08,21,02,59,13.30
2013,08,21,03,00,13.30
2013,08,21,03,01,13.30
2013,08,21,03,02,13.30
2013,08,21,03,03,13.30
2013,08,21,03,04,13.30
2013,08,21,03,05,13.20
2013,08,21,03,06,13.20
2013,08,21,03,07,13.20
2013,08,21,03,08,13.20
2013,08,21,03,09,13.20
2013,08,21,03,10,13.20
2013,08,21,03,11,13.20
2013,08,21,03,12,13.20
2013,08,21,03,13,13.20
2013,08,21,03,14,13.20
2013,08,21,03,15,13.20
2013,08,21,03,16,13.30
2013,08,21,03,17,13.30
2013,08,21,03,18,13.30
2013,08,21,03,19,13.30
2013,08,21,03,20,13.30
2013,08,21,03,21,13.20
2013,08,21,03,22,13.20
2013,08,21,03,23,13.20
2013,08,21,03,24,13.10
2013,08,21,03,25,13.10
2013,08,21,03,26,13.10
2013,08,21,03,27,13.10
2013,08,21,03,28,13.10
2013,08,21,03,29,13.10
2013,08,21,03,30,13.10
2013,08,21,03,31,13.00
2013,08,21,03,32,13.00
2013,08,21,03,33,13.00
2013,08,21,03,34,12.90
2013,08,21,03,35,12.90
2013,08,21,03,36,12.90
2013,08,21,03,37,12.90
2013,08,21,03,38,12.90
2013,08,21,03,39,12.90
2013,08,21,03,40,13.00
2013,08,21,03,41,13.10
2013,08,21,03,42,13.10
2013,08,21,03,43,13.20
2013,08,21,03,44,13.20
2013,08,21,03,45,13.20
2013,08,21,03,46,13.30
2013,08,21,03,47,13.30
2013,08,21,03,48,13.30
2013,08,21,03,49,13.40
2013,08,21,03,50,13.40
2013,08,21,03,51,13.50
2013,08,21,03,52,13.50
2013,08,21,03,53,13.50
2013,08,21,03,54,13.60
2013,08,21,03,55,13.60
2013,08,21,03,56,13.60
2013,08,21,03,57,13.60
2013,08,21,03,58,13.60
2013,08,21,03,59,13.60
2013,08,21,04,00,13.60
2013,08,21,04,01,13.60
2013,08,21,04,02,13.60
2013,08,21,04,03,13.70
2013,08,21,04,04,13.70
2013,08,21,04,05,13.70
2013,08,21,04,06,13.70
2013,08,21,04,07,13.70
2013,08,21,04,08,13.70
2013,08,21,04,09,13.70
2013,08,21,04,10,13.70
2013,08,21,04,11,13.70
2013,08,21,04,12,13.70
2013,08,21,04,13,13.60
2013,08,21,04,14,13.60
2013,08,21,04,15,13.50
2013,08,21,04,16,13.50
2013,08,21,04,17,13.40
2013,08,21,04,18,13.40
2013,08,21,04,19,13.30
2013,08,21,04,20,13.20
2013,08,21,04,21,13.20
2013,08,21,04,22,13.20
2013,08,21,04,23,13.20
2013,08,21,04,24,13.20
2013,08,21,04,25,13.20
2013,08,21,04,26,13.20
2013,08,21,04,27,13.30
2013,08,21,04,28,13.30
2013,08,21,04,29,13.30
2013,08,21,04,30,13.30
2013,08,21,04,31,13.30
2013,08,21,04,32,13.30
2013,08,21,04,33,13.30
2013,08,21,04,34,13.30
2013,08,21,04,35,13.30
2013,08,21,04,36,13.30
2013,08,21,04,37,13.30
2013,08,21,04,38,13.40
2013,08,21,04,39,13.40
2013,08,21,04,40,13.40
2013,08,21,04,41,13.40
2013,08,21,04,42,13.50
2013,08,21,04,43,13.50
2013,08,21,04,44,13.50
2013,08,21,04,45,13.60
2013,08,21,04,46,13.60
2013,08,21,04,47,13.70
2013,08,21,04,48,13.70
2013,08,21,04,49,13.70
2013,08,21,04,50,13.80
2013,08,21,04,51,13.80
2013,08,21,04,52,13.80
2013,08,21,04,53,13.80
2013,08,21,04,54,13.80
2013,08,21,04,55,13.80
2013,08,21,04,56,13.80
2013,08,21,04,57,13.80
2013,08,21,04,58,13.80
2013,08,21,04,59,13.70
2013,08,21,05,00,13.70
2013,08,21,05,01,13.70
2013,08,21,05,02,13.60
2013,08,21,05,03,13.50
2013,08,21,05,04,13.50
2013,08,21,05,05,13.50
2013,08,21,05,06,13.50
2013,08,21,05,07,13.40
2013,08,21,05,08,13.40
2013,08,21,05,09,13.40
2013,08,21,05,10,13.40
2013,08,21,05,11,13.40
2013,08,21,05,12,13.40
2013,08,21,05,13,13.50
2013,08,21,05,14,13.50
2013,08,21,05,15,13.50
2013,08,21,05,16,13.60
2013,08,21,05,17,13.60
2013,08,21,05,18,13.60
2013,08,21,05,19,13.70
2013,08,21,05,20,13.70
2013,08,21,05,21,13.70
2013,08,21,05,22,13.70
2013,08,21,05,23,13.70
2013,08,21,05,24,13.70
2013,08,21,05,25,13.70
2013,08,21,05,26,13.70
2013,08,21,05,27,13.80
2013,08,21,05,28,13.80
2013,08,21,05,29,13.80
2013,08,21,05,30,13.80
2013,08,21,05,31,13.80
2013,08,21,05,32,13.80
2013,08,21,05,33,13.80
2013,08,21,05,34,13.80
2013,08,21,05,35,13.80
2013,08,21,05,36,13.80
2013,08,21,05,37,13.90
2013,08,21,05,38,13.90
2013,08,21,05,39,14.00
2013,08,21,05,40,14.00
2013,08,21,05,41,14.10
2013,08,21,05,42,14.20
2013,08,21,05,43,14.30
2013,08,21,05,44,14.30
2013,08,21,05,45,14.40
2013,08,21,05,46,14.40
2013,08,21,05,47,14.50
2013,08,21,05,48,14.60
2013,08,21,05,49,14.60
2013,08,21,05,50,14.60
2013,08,21,05,51,14.60
2013,08,21,05,52,14.70
2013,08,21,05,53,14.70
2013,08,21,05,54,14.70
2013,08,21,05,55,14.70
2013,08,21,05,56,14.60
2013,08,21,05,57,14.60
2013,08,21,05,58,14.50
2013,08,21,05,59,14.50
2013,08,21,06,00,14.40
2013,08,21,06,01,14.30
2013,08,21,06,02,14.20
2013,08,21,06,03,14.20
2013,08,21,06,04,14.20
2013,08,21,06,05,14.10
2013,08,21,06,06,14.10
2013,08,21,06,07,14.10
2013,08,21,06,08,14.20
2013,08,21,06,09,14.20
2013,08,21,06,10,14.20
2013,08,21,06,11,14.30
2013,08,21,06,12,14.30
2013,08,21,06,13,14.20
2013,08,21,06,14,14.20
2013,08,21,06,15,14.10
2013,08,21,06,16,14.10
2013,08,21,06,17,14.10
2013,08,21,06,18,14.00
2013,08,21,06,19,14.00
2013,08,21,06,20,13.90
2013,08,21,06,21,13.90
2013,08,21,06,22,13.90
2013,08,21,06,23,13.90
2013,08,21,06,24,13.90
2013,08,21,06,25,13.90
2013,08,21,06,26,13.90
2013,08,21,06,27,13.90
2013,08,21,06,28,14.00
2013,08,21,06,29,14.00
2013,08,21,06,30,14.10
2013,08,21,06,31,14.10
2013,08,21,06,32,14.20
2013,08,21,06,33,14.30
2013,08,21,06,34,14.30
2013,08,21,06,35,14.40
2013,08,21,06,36,14.30
2013,08,21,06,37,14.20
2013,08,21,06,38,14.20
2013,08,21,06,39,14.20
2013,08,21,06,40,14.20
2013,08,21,06,41,14.20
2013,08,21,06,42,14.20
2013,08,21,06,43,14.20
2013,08,21,06,44,14.20
2013,08,21,06,45,14.30
2013,08,21,06,46,14.30
2013,08,21,06,47,14.30
2013,08,21,06,48,14.30
2013,08,21,06,49,14.30
2013,08,21,06,50,14.30
2013,08,21,06,51,14.30
2013,08,21,06,52,14.30
2013,08,21,06,53,14.30
2013,08,21,06,54,14.30
2013,08,21,06,55,14.30
2013,08,21,06,56,14.30
2013,08,21,06,57,14.30
2013,08,21,06,58,14.30
2013,08,21,06,59,14.30
2013,08,21,07,00,14.30
2013,08,21,07,01,14.30
2013,08,21,07,02,14.30
2013,08,21,07,03,14.40
2013,08,21,07,04,14.40
2013,08,21,07,05,14.40
2013,08,21,07,06,14.40
2013,08,21,07,07,14.40
2013,08,21,07,08,14.40
2013,08,21,07,09,14.40
2013,08,21,07,10,14.40
2013,08,21,07,11,14.50
2013,08,21,07,12,14.50
2013,08,21,07,13,14.50
2013,08,21,07,14,14.60
2013,08,21,07,15,14.60
2013,08,21,07,16,14.60
2013,08,21,07,17,14.60
2013,08,21,07,18,14.60
2013,08,21,07,19,14.70
2013,08,21,07,20,14.70
2013,08,21,07,21,14.70
2013,08,21,07,22,14.60
2013,08,21,07,23,14.60
2013,08,21,07,24,14.60
2013,08,21,07,25,14.60
2013,08,21,07,26,14.60
2013,08,21,07,27,14.50
2013,08,21,07,28,14.50
2013,08,21,07,29,14.50
2013,08,21,07,30,14.50
2013,08,21,07,31,14.50
2013,08,21,07,32,14.60
2013,08,21,07,33,14.60
2013,08,21,07,34,14.70
2013,08,21,07,35,14.70
2013,08,21,07,36,14.70
2013,08,21,07,37,14.80
2013,08,21,07,38,14.80
2013,08,21,07,39,14.90
2013,08,21,07,40,14.90
2013,08,21,07,41,15.00
2013,08,21,07,42,15.10
2013,08,21,07,43,15.10
2013,08,21,07,44,15.20
2013,08,21,07,45,15.30
2013,08,21,07,46,15.30
2013,08,21,07,47,15.40
2013,08,21,07,48,15.50
2013,08,21,07,49,15.60
2013,08,21,07,50,15.70
2013,08,21,07,51,15.70
2013,08,21,07,52,15.80
2013,08,21,07,53,15.90
2013,08,21,07,54,16.00
2013,08,21,07,55,16.00
2013,08,21,07,56,16.10
2013,08,21,07,57,16.20
2013,08,21,07,58,16.20
2013,08,21,07,59,16.20
2013,08,21,08,00,16.30
2013,08,21,08,01,16.30
2013,08,21,08,02,16.30
2013,08,21,08,03,16.30
2013,08,21,08,04,16.40
2013,08,21,08,05,16.40
2013,08,21,08,06,16.40
2013,08,21,08,07,16.40
2013,08,21,08,08,16.40
2013,08,21,08,09,16.40
2013,08,21,08,10,16.50
2013,08,21,08,11,16.50
2013,08,21,08,12,16.60
2013,08,21,08,13,16.70
2013,08,21,08,14,16.70
2013,08,21,08,15,16.70
2013,08,21,08,16,16.80
2013,08,21,08,17,16.80
2013,08,21,08,18,16.80
2013,08,21,08,19,16.90
2013,08,21,08,20,16.90
2013,08,21,08,21,16.90
2013,08,21,08,22,16.90
2013,08,21,08,23,16.90
2013,08,21,08,24,17.00
2013,08,21,08,25,17.00
2013,08,21,08,26,17.00
2013,08,21,08,27,17.10
2013,08,21,08,28,17.10
2013,08,21,08,29,17.10
2013,08,21,08,30,17.20
2013,08,21,08,31,17.20
2013,08,21,08,32,17.20
2013,08,21,08,33,17.20
2013,08,21,08,34,17.20
2013,08,21,08,35,17.30
2013,08,21,08,36,17.30
2013,08,21,08,37,17.40
2013,08,21,08,38,17.50
2013,08,21,08,39,17.50
2013,08,21,08,40,17.60
2013,08,21,08,41,17.70
2013,08,21,08,42,17.70
2013,08,21,08,43,17.70
2013,08,21,08,44,17.80
2013,08,21,08,45,17.80
2013,08,21,08,46,17.80
2013,08,21,08,47,17.80
2013,08,21,08,48,17.80
2013,08,21,08,49,17.80
2013,08,21,08,50,17.80
2013,08,21,08,51,17.80
2013,08,21,08,52,17.80
2013,08,21,08,53,17.90
2013,08,21,08,54,17.90
2013,08,21,08,55,18.00
2013,08,21,08,56,18.00
2013,08,21,08,57,18.00
2013,08,21,08,58,18.00
2013,08,21,08,59,18.10
2013,08,21,09,00,18.10
2013,08,21,09,01,18.10
2013,08,21,09,02,18.10
2013,08,21,09,03,18.10
2013,08,21,09,04,18.10
2013,08,21,09,05,18.10
2013,08,21,09,06,18.10
2013,08,21,09,07,18.00
2013,08,21,09,08,18.00
2013,08,21,09,09,18.00
2013,08,21,09,10,18.10
2013,08,21,09,11,18.10
2013,08,21,09,12,18.10
2013,08,21,09,13,18.00
2013,08,21,09,14,18.00
2013,08,21,09,15,18.00
2013,08,21,09,16,17.90
2013,08,21,09,17,17.90
2013,08,21,09,18,17.80
2013,08,21,09,19,17.80
2013,08,21,09,20,17.80
2013,08,21,09,21,17.90
2013,08,21,09,22,17.90
2013,08,21,09,23,18.00
2013,08,21,09,24,18.10
2013,08,21,09,25,18.10
2013,08,21,09,26,18.20
2013,08,21,09,27,18.30
2013,08,21,09,28,18.30
2013,08,21,09,29,18.30
2013,08,21,09,30,18.30
2013,08,21,09,31,18.30
2013,08,21,09,32,18.20
2013,08,21,09,33,18.20
2013,08,21,09,34,18.10
2013,08,21,09,35,18.20
2013,08,21,09,36,18.20
2013,08,21,09,37,18.20
2013,08,21,09,38,18.30
2013,08,21,09,39,18.30
2013,08,21,09,40,18.40
2013,08,21,09,41,18.50
2013,08,21,09,42,18.60
2013,08,21,09,43,18.60
2013,08,21,09,44,18.60
2013,08,21,09,45,18.60
2013,08,21,09,46,18.60
2013,08,21,09,47,18.60
2013,08,21,09,48,18.60
2013,08,21,09,49,18.60
2013,08,21,09,50,18.60
2013,08,21,09,51,18.60
2013,08,21,09,52,18.70
2013,08,21,09,53,18.70
2013,08,21,09,54,18.70
2013,08,21,09,55,18.70
2013,08,21,09,56,18.70
2013,08,21,09,57,18.70
2013,08,21,09,58,18.70
2013,08,21,09,59,18.70
2013,08,21,10,00,18.70
2013,08,21,10,01,18.70
2013,08,21,10,02,18.80
2013,08,21,10,03,18.80
2013,08,21,10,04,18.90
2013,08,21,10,05,18.90
2013,08,21,10,06,18.90
2013,08,21,10,07,18.90
2013,08,21,10,08,18.90
2013,08,21,10,09,18.90
2013,08,21,10,10,18.90
2013,08,21,10,11,18.90
2013,08,21,10,12,18.90
2013,08,21,10,13,18.90
2013,08,21,10,14,18.90
2013,08,21,10,15,18.80
2013,08,21,10,16,18.80
2013,08,21,10,17,18.70
2013,08,21,10,18,18.70
2013,08,21,10,19,18.70
2013,08,21,10,20,18.70
2013,08,21,10,21,18.80
2013,08,21,10,22,18.80
2013,08,21,10,23,18.80
2013,08,21,10,24,18.90
2013,08,21,10,25,19.00
2013,08,21,10,26,19.10
2013,08,21,10,27,19.10
2013,08,21,10,28,19.20
2013,08,21,10,29,19.20
2013,08,21,10,30,19.20
2013,08,21,10,31,19.20
2013,08,21,10,32,19.20
2013,08,21,10,33,19.20
2013,08,21,10,34,19.10
2013,08,21,10,35,19.10
2013,08,21,10,36,19.10
2013,08,21,10,37,19.20
2013,08,21,10,38,19.30
2013,08,21,10,39,19.40
2013,08,21,10,40,19.50
2013,08,21,10,41,19.50
2013,08,21,10,42,19.60
2013,08,21,10,43,19.60
2013,08,21,10,44,19.60
2013,08,21,10,45,19.60
2013,08,21,10,46,19.60
2013,08,21,10,47,19.60
2013,08,21,10,48,19.70
2013,08,21,10,49,19.70
2013,08,21,10,50,19.70
2013,08,21,10,51,19.70
2013,08,21,10,52,19.70
2013,08,21,10,53,19.60
2013,08,21,10,54,19.60
2013,08,21,10,55,19.50
2013,08,21,10,56,19.50
2013,08,21,10,57,19.60
2013,08,21,10,58,19.70
2013,08,21,10,59,19.70
2013,08,21,11,00,19.70
2013,08,21,11,01,19.60
2013,08,21,11,02,19.50
2013,08,21,11,03,19.50
2013,08,21,11,04,19.40
2013,08,21,11,05,19.40
2013,08,21,11,06,19.40
2013,08,21,11,07,19.40
2013,08,21,11,08,19.50
2013,08,21,11,09,19.60
2013,08,21,11,10,19.60
2013,08,21,11,11,19.70
2013,08,21,11,12,19.70
2013,08,21,11,13,19.70
2013,08,21,11,14,19.70
2013,08,21,11,15,19.80
2013,08,21,11,16,19.80
2013,08,21,11,17,19.80
2013,08,21,11,18,19.80
2013,08,21,11,19,19.80
2013,08,21,11,20,19.80
2013,08,21,11,21,19.80
2013,08,21,11,22,19.80
2013,08,21,11,23,19.80
2013,08,21,11,24,19.80
2013,08,21,11,25,19.80
2013,08,21,11,26,19.80
2013,08,21,11,27,19.90
2013,08,21,11,28,19.90
2013,08,21,11,29,20.00
2013,08,21,11,30,20.00
2013,08,21,11,31,20.10
2013,08,21,11,32,20.10
2013,08,21,11,33,20.10
2013,08,21,11,34,20.20
2013,08,21,11,35,20.20
2013,08,21,11,36,20.20
2013,08,21,11,37,20.20
2013,08,21,11,38,20.30
2013,08,21,11,39,20.40
2013,08,21,11,40,20.50
2013,08,21,11,41,20.60
2013,08,21,11,42,20.70
2013,08,21,11,43,20.80
2013,08,21,11,44,20.90
2013,08,21,11,45,20.90
2013,08,21,11,46,20.90
2013,08,21,11,47,20.90
2013,08,21,11,48,20.90
2013,08,21,11,49,20.90
2013,08,21,11,50,21.10
2013,08,21,11,51,21.20
2013,08,21,11,52,21.20
2013,08,21,11,53,21.20
2013,08,21,11,54,21.10
2013,08,21,11,55,21.10
2013,08,21,11,56,21.00
2013,08,21,11,57,21.00
2013,08,21,11,58,21.00
2013,08,21,11,59,20.80
2013,08,21,12,00,20.70
2013,08,21,12,01,20.70
2013,08,21,12,02,20.70
2013,08,21,12,03,20.70
2013,08,21,12,04,20.80
2013,08,21,12,05,20.90
2013,08,21,12,06,20.90
2013,08,21,12,07,20.90
2013,08,21,12,08,20.90
2013,08,21,12,09,20.80
2013,08,21,12,10,20.90
2013,08,21,12,11,20.90
2013,08,21,12,12,21.00
2013,08,21,12,13,21.00
2013,08,21,12,14,21.10
2013,08,21,12,15,21.00
2013,08,21,12,16,20.90
2013,08,21,12,17,21.00
2013,08,21,12,18,21.10
2013,08,21,12,19,21.30
2013,08,21,12,20,21.40
2013,08,21,12,21,21.50
2013,08,21,12,22,21.50
2013,08,21,12,23,21.50
2013,08,21,12,24,21.50
2013,08,21,12,25,21.60
2013,08,21,12,26,21.60
2013,08,21,12,27,21.70
2013,08,21,12,28,21.70
2013,08,21,12,29,21.80
2013,08,21,12,30,21.70
2013,08,21,12,31,21.60
2013,08,21,12,32,21.50
2013,08,21,12,33,21.50
2013,08,21,12,34,21.50
2013,08,21,12,35,21.50
2013,08,21,12,36,21.60
2013,08,21,12,37,21.70
2013,08,21,12,38,21.90
2013,08,21,12,39,21.90
2013,08,21,12,40,21.90
2013,08,21,12,41,21.90
2013,08,21,12,42,21.90
2013,08,21,12,43,21.90
2013,08,21,12,44,21.90
2013,08,21,12,45,22.00
2013,08,21,12,46,22.00
2013,08,21,12,47,22.10
2013,08,21,12,48,22.10
2013,08,21,12,49,22.20
2013,08,21,12,50,22.20
2013,08,21,12,51,22.10
2013,08,21,12,52,22.00
2013,08,21,12,53,21.90
2013,08,21,12,54,21.70
2013,08,21,12,55,21.60
2013,08,21,12,56,21.50
2013,08,21,12,57,21.40
2013,08,21,12,58,21.30
2013,08,21,12,59,21.30
2013,08,21,13,00,21.30
2013,08,21,13,01,21.30
2013,08,21,13,02,21.40
2013,08,21,13,03,21.60
2013,08,21,13,04,21.70
2013,08,21,13,05,21.70
2013,08,21,13,06,21.70
2013,08,21,13,07,21.90
2013,08,21,13,08,22.00
2013,08,21,13,09,22.10
2013,08,21,13,10,22.10
2013,08,21,13,11,22.10
2013,08,21,13,12,22.30
2013,08,21,13,13,22.40
2013,08,21,13,14,22.30
2013,08,21,13,15,22.20
2013,08,21,13,16,22.20
2013,08,21,13,17,22.10
2013,08,21,13,18,22.00
2013,08,21,13,19,22.00
2013,08,21,13,20,21.90
2013,08,21,13,21,22.00
2013,08,21,13,22,22.00
2013,08,21,13,23,21.90
2013,08,21,13,24,21.90
2013,08,21,13,25,21.90
2013,08,21,13,26,21.90
2013,08,21,13,27,21.80
2013,08,21,13,28,21.80
2013,08,21,13,29,21.80
2013,08,21,13,30,21.80
2013,08,21,13,31,21.80
2013,08,21,13,32,21.70
2013,08,21,13,33,21.80
2013,08,21,13,34,21.80
2013,08,21,13,35,21.70
2013,08,21,13,36,21.70
2013,08,21,13,37,21.70
2013,08,21,13,38,21.80
2013,08,21,13,39,21.80
2013,08,21,13,40,21.70
2013,08,21,13,41,21.70
2013,08,21,13,42,21.70
2013,08,21,13,43,21.80
2013,08,21,13,44,21.90
2013,08,21,13,45,22.10
2013,08,21,13,46,22.30
2013,08,21,13,47,22.30
2013,08,21,13,48,22.50
2013,08,21,13,49,22.60
2013,08,21,13,50,22.60
2013,08,21,13,51,22.50
2013,08,21,13,52,22.40
2013,08,21,13,53,22.30
2013,08,21,13,54,22.30
2013,08,21,13,55,22.30
2013,08,21,13,56,22.30
2013,08,21,13,57,22.30
2013,08,21,13,58,22.30
2013,08,21,13,59,22.30
2013,08,21,14,00,22.40
2013,08,21,14,01,22.40
2013,08,21,14,02,22.40
2013,08,21,14,03,22.40
2013,08,21,14,04,22.30
2013,08,21,14,05,22.40
2013,08,21,14,06,22.50
2013,08,21,14,07,22.80
2013,08,21,14,08,23.00
2013,08,21,14,09,23.00
2013,08,21,14,10,23.00
2013,08,21,14,11,22.90
2013,08,21,14,12,22.90
2013,08,21,14,13,22.90
2013,08,21,14,14,22.90
2013,08,21,14,15,22.90
2013,08,21,14,16,23.00
2013,08,21,14,17,23.10
2013,08,21,14,18,23.20
2013,08,21,14,19,23.30
2013,08,21,14,20,23.50
2013,08,21,14,21,23.60
2013,08,21,14,22,23.60
2013,08,21,14,23,23.50
2013,08,21,14,24,23.50
2013,08,21,14,25,23.60
2013,08,21,14,26,23.60
2013,08,21,14,27,23.50
2013,08,21,14,28,23.50
2013,08,21,14,29,23.40
2013,08,21,14,30,23.40
2013,08,21,14,31,23.50
2013,08,21,14,32,23.60
2013,08,21,14,33,23.60
2013,08,21,14,34,23.60
2013,08,21,14,35,23.50
2013,08,21,14,36,23.60
2013,08,21,14,37,23.60
2013,08,21,14,38,23.60
2013,08,21,14,39,23.60
2013,08,21,14,40,23.70
2013,08,21,14,41,23.70
2013,08,21,14,42,23.70
2013,08,21,14,43,23.70
2013,08,21,14,44,23.80
2013,08,21,14,45,23.80
2013,08,21,14,46,24.00
2013,08,21,14,47,24.20
2013,08,21,14,48,24.20
2013,08,21,14,49,24.10
2013,08,21,14,50,23.90
2013,08,21,14,51,23.80
2013,08,21,14,52,23.80
2013,08,21,14,53,23.80
2013,08,21,14,54,23.80
2013,08,21,14,55,23.70
2013,08,21,14,56,23.70
2013,08,21,14,57,23.70
2013,08,21,14,58,23.80
2013,08,21,14,59,23.90
2013,08,21,15,00,24.00
2013,08,21,15,01,24.10
2013,08,21,15,02,24.10
2013,08,21,15,03,24.10
2013,08,21,15,04,24.10
2013,08,21,15,05,24.10
2013,08,21,15,06,24.00
2013,08,21,15,07,24.00
2013,08,21,15,08,23.90
2013,08,21,15,09,23.80
2013,08,21,15,10,23.90
2013,08,21,15,11,23.90
2013,08,21,15,12,24.00
2013,08,21,15,13,24.00
2013,08,21,15,14,24.10
2013,08,21,15,15,24.10
2013,08,21,15,16,24.20
2013,08,21,15,17,24.30
2013,08,21,15,18,24.20
2013,08,21,15,19,24.20
2013,08,21,15,20,24.20
2013,08,21,15,21,24.30
2013,08,21,15,22,24.20
2013,08,21,15,23,24.20
2013,08,21,15,24,24.10
2013,08,21,15,25,24.10
2013,08,21,15,26,24.00
2013,08,21,15,27,24.00
2013,08,21,15,28,23.90
2013,08,21,15,29,23.90
2013,08,21,15,30,24.00
2013,08,21,15,31,24.10
2013,08,21,15,32,24.20
2013,08,21,15,33,24.40
2013,08,21,15,34,24.50
2013,08,21,15,35,24.60
2013,08,21,15,36,24.70
2013,08,21,15,37,24.70
2013,08,21,15,38,24.80
2013,08,21,15,39,24.80
2013,08,21,15,40,24.90
2013,08,21,15,41,24.90
2013,08,21,15,42,24.90
2013,08,21,15,43,24.90
2013,08,21,15,44,24.90
2013,08,21,15,45,24.70
2013,08,21,15,46,24.60
2013,08,21,15,47,24.60
2013,08,21,15,48,24.50
2013,08,21,15,49,24.50
2013,08,21,15,50,24.40
2013,08,21,15,51,24.40
2013,08,21,15,52,24.40
2013,08,21,15,53,24.40
2013,08,21,15,54,24.40
2013,08,21,15,55,24.40
2013,08,21,15,56,24.30
2013,08,21,15,57,24.30
2013,08,21,15,58,24.40
2013,08,21,15,59,24.40
2013,08,21,16,00,24.50
2013,08,21,16,01,24.50
2013,08,21,16,02,24.50
2013,08,21,16,03,24.50
2013,08,21,16,04,24.40
2013,08,21,16,05,24.30
2013,08,21,16,06,24.30
2013,08,21,16,07,24.20
2013,08,21,16,08,24.20
2013,08,21,16,09,24.10
2013,08,21,16,10,24.10
2013,08,21,16,11,24.00
2013,08,21,16,12,24.00
2013,08,21,16,13,24.00
2013,08,21,16,14,23.90
2013,08,21,16,15,23.90
2013,08,21,16,16,23.80
2013,08,21,16,17,23.80
2013,08,21,16,18,23.80
2013,08,21,16,19,23.90
2013,08,21,16,20,23.90
2013,08,21,16,21,24.00
2013,08,21,16,22,24.00
2013,08,21,16,23,24.10
2013,08,21,16,24,24.20
2013,08,21,16,25,24.20
2013,08,21,16,26,24.30
2013,08,21,16,27,24.40
2013,08,21,16,28,24.50
2013,08,21,16,29,24.50
2013,08,21,16,30,24.40
2013,08,21,16,31,24.40
2013,08,21,16,32,24.30
2013,08,21,16,33,24.30
2013,08,21,16,34,24.20
2013,08,21,16,35,24.00
2013,08,21,16,36,23.90
2013,08,21,16,37,23.80
2013,08,21,16,38,23.80
2013,08,21,16,39,23.90
2013,08,21,16,40,24.10
2013,08,21,16,41,24.10
2013,08,21,16,42,24.10
2013,08,21,16,43,24.10
2013,08,21,16,44,24.10
2013,08,21,16,45,24.10
2013,08,21,16,46,23.90
2013,08,21,16,47,23.80
2013,08,21,16,48,23.80
2013,08,21,16,49,23.80
2013,08,21,16,50,23.80
2013,08,21,16,51,23.80
2013,08,21,16,52,23.70
2013,08,21,16,53,23.80
2013,08,21,16,54,23.90
2013,08,21,16,55,24.00
2013,08,21,16,56,24.20
2013,08,21,16,57,24.30
2013,08,21,16,58,24.30
2013,08,21,16,59,24.30
2013,08,21,17,00,24.30
2013,08,21,17,01,24.40
2013,08,21,17,02,24.40
2013,08,21,17,03,24.30
2013,08,21,17,04,24.20
2013,08,21,17,05,24.30
2013,08,21,17,06,24.40
2013,08,21,17,07,24.40
2013,08,21,17,08,24.50
2013,08,21,17,09,24.60
2013,08,21,17,10,24.70
2013,08,21,17,11,24.60
2013,08,21,17,12,24.50
2013,08,21,17,13,24.40
2013,08,21,17,14,24.30
2013,08,21,17,15,24.30
2013,08,21,17,16,24.30
2013,08,21,17,17,24.30
2013,08,21,17,18,24.30
2013,08,21,17,19,24.40